Home   Weather   Cayo Largo   Past weeks
Flag for Cuba

Past Weather in Cayo Largo, Cuba — Yesterday and Last 2 Weeks

Now
88 °F

Scattered clouds.


Feels Like: 100 °F
Forecast: N/A
Wind: 13 mph from Northeast

Location: Aeropuerto Jose Marti - Rancho-Boyeros - Habana

Current Time: Oct 23, 2019 at 5:55:31 pm

Latest Report: Oct 23, 2019 at 4:55 pm


Visibility: 6 mi

Pressure: 29.92 "Hg

Humidity: 70%

Dew Point: 77 °F

Location of Cayo LargoLocation

Past Weather in Cayo Largo — Graph

°F

Cayo Largo Temperature Yesterday

Maximum temperature yesterday: 93 °F (at 3:55 pm)
Minimum temperature yesterday: 75 °F (at 4:55 am)
Average temperature yesterday: 81 °F

High & Low Weather Summary for the Past Weeks

 TemperatureHumidityPressure
High93 °F (Oct 22, 3:55 pm)100% (Oct 8, 5:55 pm)30.04 "Hg (Oct 8, 5:55 pm)
Low70 °F (Oct 11, 5:55 am)53% (Oct 22, 3:55 pm)29.83 "Hg (Oct 19, 1:55 am)
Average79 °F88%29.94 "Hg
* Reported Oct 8 4:55 pm — Oct 23 4:55 pm, Cayo Largo. Weather by CustomWeather, © 2019

Note: Actual official high and low records may vary slightly from our data, if they occured in-between our weather recording intervals... More about our weather records

Advertising

Cayo Largo Weather History for the Previous 24 Hours

Scroll right to see more
 ConditionsComfort  
Time TempWeatherWind HumidityBarometerVisibility
4:55 pm
Wed, Oct 23
88 °FScattered clouds.13 mph70%29.92 "Hg6 mi
3:55 pm91 °FPartly sunny.8 mph56%29.92 "Hg6 mi
2:55 pm90 °FPartly sunny.7 mph63%29.92 "Hg6 mi
1:55 pm88 °FPartly sunny.6 mph66%29.95 "Hg6 mi
12:55 pm90 °FPartly sunny.7 mph63%29.98 "Hg6 mi
11:55 am88 °FScattered clouds.8 mph66%30.01 "Hg6 mi
10:55 am86 °FScattered clouds.7 mph75%30.01 "Hg6 mi
9:55 am84 °FScattered clouds.7 mph79%30.01 "Hg6 mi
8:55 am79 °FPassing clouds.3 mph100%29.98 "Hg6 mi
7:55 am75 °FPassing clouds.2 mph100%29.98 "Hg6 mi
6:55 am75 °FPassing clouds.5 mph100%29.95 "Hg6 mi
5:55 am75 °FPassing clouds.No wind100%29.95 "Hg6 mi
4:55 am75 °FPassing clouds.5 mph100%29.95 "Hg6 mi
3:55 am77 °FPassing clouds.5 mph100%29.95 "Hg6 mi
2:55 am77 °FPassing clouds.No wind100%29.95 "Hg6 mi
1:55 am79 °FPassing clouds.6 mph100%29.98 "HgN/A
12:55 am79 °FPassing clouds.6 mph100%29.98 "Hg6 mi
11:55 pm
Tue, Oct 22
77 °FPassing clouds.5 mph100%30.01 "Hg6 mi
10:55 pm79 °FPassing clouds.5 mph100%30.01 "Hg6 mi
9:55 pm79 °FPassing clouds.6 mph100%29.98 "Hg6 mi
8:55 pm79 °FPassing clouds.7 mph94%29.98 "Hg6 mi
7:55 pm77 °FPassing clouds.5 mph89%29.95 "Hg6 mi
6:55 pm77 °FScattered clouds.6 mph79%29.95 "Hg6 mi
5:55 pm84 °FThundershowers. Partly sunny.12 mph74%29.95 "Hg4 mi
Weather by CustomWeather, © 2019

See weather overview